Odiham, United Kingdom

5:42 AM GMT on February 21, 2018 (GMT +0000)
Odiham Air Base

Weather History for EGVO - April, 2013

Change the Weather History Date:

Saturday, April 20, 2013

  Actual Average Record
Temperature  
Mean Temperature 44 °F -  
Max Temperature 56 °F - - ()
Min Temperature 31 °F - - ()
Degree Days  
Heating Degree Days 22    
Moisture  
Dew Point 29 °F    
Average Humidity 59    
Maximum Humidity 100    
Minimum Humidity 17    
Precipitation  
Precipitation 0.00 in - - ()
Sea Level Pressure  
Sea Level Pressure 30.47 in    
Wind  
Wind Speed 4 mph ()    
Max Wind Speed 10 mph    
Max Gust Speed -    
Visibility 7.5 miles    
Events Fog    
T = Trace of Precipitation, MM = Missing Value Source: Averaged Metar Reports

Daily Weather History Graph

Daily Weather History Graph

Search for Another Location

Airport or City:

Trip Planner

Search our weather history database for the weather conditions in past years. The results will help you decide how hot, cold, wet, or windy it might be!

Date:

Astronomy

Apr. 20, 2013 Rise Set
Actual Time 5:58 AM BST 8:08 PM BST
Civil Twilight 5:22 AM BST 8:44 PM BST
Nautical Twilight 4:37 AM BST 9:29 PM BST
Astronomical Twilight 3:45 AM BST 10:21 PM BST
Moon 2:01 PM BST (4/20) 3:17 AM BST (4/20)
Length of Visible Light 15h 22m
Length of Day
14h 10m
Waxing Gibbous, 69% of the Moon is Illuminated
Apr 20
Waxing Gibbous
Apr 25
Full
May 2
Last Quarter
May 10
New
May 18
First Quarter

Hourly Weather History & Observations

Time (BST) Temp. Windchill Dew Point Humidity Pressure Visibility Wind Dir Wind Speed Gust Speed Precip Events Conditions
12:50 AM 39 °F - 36 °F 84% 30.52 in 11 mi East 3.5 mph - -  
12:50 AM 39.2 °F 37.0 °F 35.6 °F 87% 30.48 in - East 3.5 mph - N/A   Clear
1:50 AM 37.4 °F 34.9 °F 35.6 °F 93% 30.51 in - ESE 3.5 mph - N/A   Clear
2:50 AM 37.4 °F 32.8 °F 35.6 °F 93% 30.51 in - East 5.8 mph - N/A   Clear
3:50 AM 35 °F - 33 °F 89% 30.54 in 8 mi ESE 2.3 mph - -  
3:50 AM 35.6 °F - 33.8 °F 93% 30.51 in - ESE 2.3 mph - N/A   Clear
4:50 AM 35.6 °F - 33.8 °F 93% 30.51 in 6.2 mi Calm Calm - N/A Fog Shallow Fog
5:50 AM 32.0 °F - 32.0 °F 100% 30.51 in 6.2 mi East 2.3 mph - N/A Fog Shallow Fog
6:50 AM 34 °F - 32 °F 91% 30.56 in 1 mi North 1.2 mph - - Fog Patches of Fog
6:50 AM 33.8 °F - 32.0 °F 93% 30.51 in 6.2 mi North 1.2 mph - N/A   Clear
7:50 AM 39.2 °F 37.0 °F 37.4 °F 93% 30.54 in 6.2 mi East 3.5 mph - N/A   Partly Cloudy
8:50 AM 44.6 °F 40.7 °F 37.4 °F 76% 30.54 in 6.2 mi East 6.9 mph - N/A   Partly Cloudy
9:50 AM 47 °F - 35 °F 51% 30.55 in 12 mi NE 5.8 mph - -   Scattered Clouds
9:50 AM 48.2 °F - 33.8 °F 58% 30.51 in 6.2 mi NE 5.8 mph - N/A   Partly Cloudy
10:50 AM 48.2 °F - 32.0 °F 54% 30.51 in 6.2 mi East 6.9 mph - N/A   Partly Cloudy
11:50 AM 50.0 °F - 28.4 °F 43% 30.51 in 6.2 mi East 6.9 mph - N/A   Partly Cloudy
12:50 PM 52 °F - 27 °F 25% 30.51 in 19 mi East 6.9 mph - -   Scattered Clouds
12:50 PM 51.8 °F - 26.6 °F 38% 30.48 in 6.2 mi East 6.9 mph - N/A   Partly Cloudy
1:50 PM 53.6 °F - 24.8 °F 33% 30.48 in 6.2 mi East 6.9 mph - N/A   Partly Cloudy
2:50 PM 55.4 °F - 23.0 °F 29% 30.45 in 6.2 mi East 5.8 mph - N/A   Partly Cloudy
3:50 PM 56 °F - 23 °F 17% 30.44 in 25 mi NNE 5.8 mph - -   Scattered Clouds
3:50 PM 55.4 °F - 23.0 °F 29% 30.42 in - NNE 5.8 mph - N/A   Clear
4:50 PM 55.4 °F - 21.2 °F 26% 30.39 in - NNE 8.1 mph - N/A   Clear
5:50 PM 55.4 °F - 19.4 °F 25% 30.39 in - ENE 8.1 mph - N/A   Clear
6:50 PM 53 °F - 23 °F 19% 30.39 in 25 mi East 10.4 mph - -   Scattered Clouds
6:50 PM 53.6 °F - 23.0 °F 30% 30.36 in - East 10.4 mph - N/A   Clear
7:50 PM 50.0 °F - 24.8 °F 37% 30.39 in - East 9.2 mph - N/A   Clear
8:50 PM 44.6 °F 39.7 °F 24.8 °F 46% 30.39 in - East 9.2 mph - N/A   Clear
9:50 PM 42 °F - 25 °F 39% 30.41 in 31 mi South 3.5 mph - -   Clear
9:50 PM 42.8 °F 41.1 °F 24.8 °F 49% 30.39 in - South 3.5 mph - N/A   Clear
10:50 PM 39.2 °F - 33.8 °F 81% 30.36 in - South 2.3 mph - N/A   Clear
11:50 PM 39.2 °F 37.0 °F 32.0 °F 75% 30.36 in - ESE 3.5 mph - N/A   Clear